#timestamp,LO_Frequency,Hit,StdDev 
1576875615.3,286047000.5,P
1576875635.1,286047000.8,N
1576875655.9,286046998.4,N
1576875675.7,286047002.8,N
1576875695.6,286046999.8,N
1576875715.4,286047000.5,N
1576875735.2,286046999.8,N
1576875755.1,286047002.2,N
1576875756.0,286047002.2,N
1576875775.8,286047000.3,N
1576875795.6,286047002.8,N
1576875815.5,286047002.4,N
1576875835.3,286047000.2,N
1576875855.2,286047000.5,N
1576875875.9,286046998.5,N
1576875895.7,286046998.2,N
1576875915.6,286046998.7,N
1576875935.4,286046998.5,N
1576875955.2,286046998.9,N
1576875975.1,286046998.4,N
1576875976.0,286046998.4,N
1576875995.8,286046999.0,N
1576876015.7,286046999.1,N
1576876035.5,286046996.5,N
1576876055.3,286046996.6,N
1576876075.2,286046997.8,N
1576876095.0,286046997.8,N
1576876095.9,286046997.8,N
1576876115.7,286046996.9,N
1576876135.6,286046996.9,N
1576876155.4,286046996.7,N
1576876175.3,286046997.0,N
1576876195.1,286046999.2,N
1576876215.8,286046999.4,N
1576876235.7,286046999.0,N
1576876255.5,286046999.4,N
1576876275.3,286046997.0,N
1576876295.2,286046996.8,N
1576876315.0,286046998.9,N
1576876315.9,286046998.9,N
1576876335.8,286046998.2,N
1576876355.6,286046998.9,N
1576876375.4,286046999.6,N
1576876395.3,286046997.0,N
1576876415.1,286046997.6,N
1576876435.8,286046999.3,N
1576876455.7,286046999.6,N
1576876475.5,286046998.9,N
1576876495.4,286046999.2,N
1576876515.2,286046999.2,N
1576876535.0,286046999.4,N
1576876535.9,286046999.4,N
1576876555.8,286046997.4,N
1576876575.6,286046997.4,N
1576876595.5,286046999.6,N
1576876615.3,286046999.3,N
1576876635.1,286046998.9,N
1576876655.9,286046996.5,Y
1576876675.7,286046998.7,P
1576876695.5,286046999.5,P
1576876715.4,286046999.5,N
1576876735.2,286046998.9,N
1576876755.1,286046999.1,N
1576876756.0,286046999.1,N
1576876775.8,286046999.0,N
1576876795.6,286046998.9,Y
1576876815.5,286047000.7,P
1576876835.3,286047000.6,N
1576876855.1,286047000.5,N
1576876875.9,286046998.2,N
1576876895.7,286047000.8,N
1576876915.6,286047000.0,N
1576876935.4,286047000.1,N
1576876955.2,286047000.3,N
1576876975.1,286047000.2,N
1576876976.0,286047000.2,N
1576876995.8,286047002.3,Y
1576877015.7,286047002.7,P
1576877035.5,286047002.3,N
1576877055.3,286047001.9,N
1576877075.2,286047004.4,Y
1576877095.0,286047001.0,P
1576877095.9,286047001.0,N
1576877115.7,286047000.0,N
1576877135.6,286047000.4,N
1576877155.4,286046998.7,N
1576877175.3,286046998.5,N
1576877195.1,286047000.6,N
1576877196.0,286047000.6,N
1576877215.8,286046999.5,N
1576877235.7,286046998.6,N
1576877255.5,286047000.7,N
1576877275.3,286047000.5,N
1576877295.2,286047000.7,N
1576877315.0,286046998.2,N
1576877315.9,286046998.2,N
1576877335.8,286047001.2,N
1576877355.6,286047000.6,N
1576877375.4,286046999.9,N
1576877395.3,286047000.6,N
1576877415.1,286047000.2,N
1576877435.8,286046999.4,N
1576877455.7,286046998.9,N
1576877475.5,286046996.8,Y
1576877495.4,286046996.4,P
1576877515.2,286046996.4,N
1576877535.0,286046997.5,N
1576877535.9,286046997.5,N
1576877555.8,286046998.0,N
1576877575.6,286046995.4,Y
1576877595.4,286046996.5,P
1576877615.3,286046997.1,P
1576877635.1,286046998.1,P
1576877655.9,286046999.4,N
1576877675.7,286046999.1,N
1576877695.5,286046996.9,Y
1576877715.4,286047000.4,P
1576877735.2,286047000.4,N
1576877755.1,286046999.7,N
1576877756.0,286046999.7,N
1576877775.8,286047002.2,N
1576877795.6,286047000.1,N
1576877815.5,286046999.7,N
1576877835.3,286047002.4,N
1576877855.1,286047000.4,N
1576877875.9,286047000.1,N
1576877895.7,286047000.1,N
1576877915.6,286047000.4,N
1576877935.4,286047000.6,N
1576877955.2,286047002.4,N
1576877975.1,286047000.1,N
1576877976.0,286047000.1,N
1576877995.8,286047001.0,N
1576878015.6,286046998.1,N
1576878035.5,286047000.5,N
1576878055.3,286047000.6,N
1576878075.2,286047000.4,N
1576878095.9,286047011.9,Y
1576878115.7,286047000.7,P
1576878135.6,286047000.5,N
1576878155.4,286047002.7,P
1576878175.2,286047001.8,N
1576878195.1,286047001.5,N
1576878196.0,286047001.5,N
1576878215.8,286047002.1,N
1576878235.7,286047000.9,N
1576878255.5,286047001.0,N
1576878275.3,286047000.8,N
1576878295.2,286046999.7,N
1576878315.0,286047004.1,Y
1576878315.9,286047004.1,P
1576878335.7,286047002.7,N
1576878355.6,286047002.0,N
1576878375.4,286047002.6,N
1576878395.3,286047002.8,N
1576878415.1,286047002.7,N
1576878416.0,286047002.7,Y
1576878435.8,286046999.3,P
1576878455.7,286046999.2,N
1576878475.5,286046999.4,N
1576878495.3,286046999.0,N
1576878515.2,286046997.0,N
1576878535.0,286046997.7,N
1576878535.9,286046997.7,N
1576878555.8,286046997.5,N
1576878575.6,286046995.6,N
1576878595.4,286046997.8,N
1576878615.3,286046998.0,N
1576878635.1,286046995.1,Y
1576878655.9,286046998.2,P
1576878675.7,286046999.3,P
1576878695.5,286046999.0,N
1576878715.4,286046999.4,N
1576878735.2,286046999.5,N
1576878755.0,286046996.9,Y
1576878755.9,286046996.9,P
1576878775.8,286046998.2,N
1576878795.6,286047000.2,N
1576878815.5,286047001.4,N
1576878835.3,286047001.3,N
1576878855.1,286047001.7,N
1576878875.9,286047001.8,N
1576878895.7,286047002.6,N
1576878915.5,286047003.9,N
1576878935.4,286047003.7,N
1576878955.2,286047001.6,N
1576878975.1,286047002.8,N
1576878976.0,286047002.8,N
1576878995.8,286046999.9,N
1576879015.6,286047002.8,N
1576879035.5,286047001.7,N
1576879055.3,286047004.0,N
1576879075.1,286047002.2,N
1576879095.9,286047001.9,N
1576879115.7,286047002.4,N
1576879135.6,286047001.3,N
1576879155.4,286047001.7,N
1576879175.2,286047001.3,N
1576879195.1,286047002.2,N
1576879196.0,286047002.2,N
